Location: Castiglione Fibocchi
(43.5333°N, 11.7667°E)
Time: 18:00:26
(UTC+00:00)

PAYLOAD A - Pass Details

Date: 15 August 2020
Orbit: 691 x 832 km, 98.3° (Epoch: 17 September)

Event Time Altitude Azimuth Distance (km) Brightness Sun altitude
Rises 03:08:45 0° 14° (NNE) 3,340 8.1 -12.1°
Reaches altitude 10° 03:11:08 10° 15° (NNE) 2,388 7.3 -11.7°
Maximum altitude 03:16:26 82° 103° (ESE) 793 4.1 -10.9°
Drops below altitude 10° 03:21:29 10° 192° (SSW) 2,281 6.1 -10.1°
Enters shadow 03:23:34 - 193° (SSW) 3,114 6.7 -9.8°
